[[{"header":{"parameterUnit":"m.s-1","parameterCategory":1,"la1":30.2991,"la2":30.254,"lo1":-89.0895,"lo2":-89.0444,"dy":0.0017,"dx":0.0017,"nx":28,"ny":28,"refTime":"2023-10-15T09:00:00:Z","depth":0,"parameterNumber":2,"parameterNumberName":"U-component_of_WINDS"},"data":[0,0,0,0,0,0,0,0,0,0,0,0,0,0,0,0,0,0,0,0,0,0,0,0,0,0,0,0,0,0,0,0,0,0,0,0,0,0,0,0,0,0,0,0,0,0,0,0,0,0,0,0,0,0,0,0,0,0,2.4898,2.4899,0,2.4907,2.4907,2.4907,2.4868,2.4867,2.4866,2.4865,2.4873,2.4874,2.4876,0,0,0,0,0,0,0,0,0,0,0,0,0,2.4851,2.4852,2.4898,2.4899,2.4899,2.4907,2.4907,2.4907,2.4869,2.4867,2.4866,2.4865,2.4873,2.4874,2.4876,0,0,0,0,0,0,0,0,0,0,0,0,0,2.4866,2.4852,2.4898,2.4881,2.4879,2.4907,2.4907,2.4907,2.4869,2.4867,2.4866,2.4864,2.4872,2.4874,2.4876,2.4921,0,0,2.4882,2.4882,0,0,0,0,0,0,0,0,2.4866,2.4868,2.4883,2.4882,2.488,2.4885,2.4893,2.4912,2.4869,2.4873,2.4865,2.4863,2.4878,2.488,2.4885,2.4921,2.4922,2.4882,2.4883,2.4884,2.4884,0,0,0,0,0,0,0,2.4865,2.4868,2.4902,2.4883,2.4882,2.4873,2.4873,2.4896,2.4885,2.4872,2.487,2.4871,2.4877,2.4883,2.4885,2.4922,2.4882,2.4883,2.4885,2.4885,2.4998,2.5,0,0,0,0,0,0,2.4866,2.4867,2.4901,2.4902,2.4869,2.4875,2.4875,2.4885,2.4884,2.4883,2.4873,2.4869,2.4881,2.4883,2.4885,2.4939,2.4884,2.4885,2.4887,2.4996,2.4998,2.5,0,0,0,0,0,0,2.4865,2.4869,2.4901,2.4884,2.4887,2.4877,2.4889,2.4886,2.4892,2.4885,2.4882,2.4881,2.4879,2.4882,2.4913,2.4938,2.4886,2.4888,2.4994,2.4997,2.4999,2.5046,0,0,0,0,0,0,2.4864,2.4869,2.4886,2.4884,2.4888,2.4929,2.489,2.4887,2.4895,2.4891,2.4892,2.489,2.4878,2.491,2.4915,2.494,2.489,2.4991,2.4995,2.4998,2.5042,2.505,2.5057,0,0,0,0,0,2.4862,2.4898,2.4887,2.4891,2.4909,2.493,2.4932,2.4918,2.4897,2.4914,2.491,2.489,2.4935,2.4914,2.4918,2.4945,2.499,2.4994,2.4998,2.5039,2.5049,2.5057,0,0,0,0,0,0,2.4901,2.4897,2.4885,2.4921,2.4926,2.4923,2.4944,2.4929,2.494,2.4935,2.4917,2.4918,2.4952,2.4951,2.4927,2.4989,2.4959,2.4964,2.4988,2.4997,2.5005,2.5004,2.4891,0,0,0,0,0,2.4914,2.4932,2.4928,2.496,2.4964,2.4954,2.4962,2.4952,2.4956,2.4958,2.4956,2.4961,2.4977,2.4987,2.5001,2.5042,2.5043,2.5063,2.507,2.5076,2.5081,2.5105,2.5114,2.5014,2.5014,2.5014,0,0,2.4941,2.4941,2.4953,2.4968,2.4971,2.499,2.4956,2.4977,2.4991,2.4961,2.499,2.4989,2.4994,2.5031,2.5047,2.5031,2.5109,2.5082,2.5087,2.5088,2.511,2.512,2.5128,2.5017,2.5016,2.5016,0,0,2.5,2.5001,2.5029,2.5033,2.5038,2.5032,2.5039,2.5039,2.5038,2.5067,2.5045,2.5062,2.5089,2.5094,2.51,2.5164,2.5146,2.5169,2.5207,2.523,2.5238,2.5245,2.5268,2.5277,2.5173,2.5174,2.5174,0,2.5032,2.506,2.5045,2.5069,2.5077,2.5052,2.5081,2.5085,2.5095,2.5101,2.5084,2.5118,2.5119,2.5158,2.5174,2.5179,2.5187,2.5168,2.5238,2.5245,2.5251,2.5273,2.5282,2.5176,2.5176,2.5176,2.5175,0,2.51,2.512,2.5142,2.5153,2.5163,2.5189,2.518,2.5192,2.5181,2.5177,2.5208,2.5209,2.5224,2.5232,2.5221,2.527,2.526,2.5241,2.521,2.5264,2.5284,2.5293,2.518,2.5179,2.5178,2.5178,0,0,2.5181,2.5186,2.5194,2.52,2.5205,2.522,2.5246,2.5261,2.5272,2.528,2.5302,2.5327,2.531,2.5317,2.5306,2.5327,2.5379,2.5305,2.5305,2.5319,2.5434,2.5448,2.5458,2.5367,2.5369,2.537,2.5434,0,2.5239,2.5283,2.5272,2.5316,2.5336,2.5314,2.5336,2.5342,2.534,2.5356,2.5353,2.5371,2.5347,2.5351,2.5371,2.5368,2.5401,2.5364,2.5388,2.5389,2.5387,2.5469,2.5484,2.5543,2.5441,2.5443,2.5444,0,2.5312,2.5324,2.537,2.5375,2.5382,2.5403,2.5417,2.5432,2.544,2.5436,2.5446,2.5432,2.5459,2.5428,2.5465,2.544,2.5449,2.545,2.5452,2.5453,2.5419,2.5473,2.5562,2.5571,2.5456,2.5455,2.5454,0,2.5367,2.5395,2.5427,2.5433,2.5438,2.5453,2.5456,2.5462,2.5472,2.5485,2.5492,2.5507,2.5515,2.5528,2.5519,2.5497,2.5558,2.5526,2.5556,2.5557,2.5569,2.5568,2.5661,2.5576,2.5576,2.5575,2.5575,0,2.5433,2.5462,2.5453,2.5472,2.5505,2.5493,2.5526,2.5526,2.5532,2.5552,2.5534,2.5553,2.554,2.5558,2.5552,2.5584,2.5588,2.5587,2.5584,2.5588,2.5588,2.5594,2.5589,2.5578,2.5577,2.5577,2.5576,0,2.55,2.5494,2.5528,2.5531,2.5533,2.5557,2.556,2.5579,2.5576,2.5601,2.5607,2.5602,2.5623,2.5616,2.5638,2.5634,2.5675,2.5668,2.5673,2.5671,2.5702,2.5699,2.5801,2.5814,2.572,2.5721,2.5722,0,2.5542,2.5564,2.5571,2.5583,2.5588,2.5608,2.5619,2.5609,2.5621,2.5633,2.565,2.567,2.5685,2.5719,2.5718,2.5735,2.5728,2.5763,2.5731,2.5734,2.5729,2.5728,2.5731,2.5769,2.577,2.5771,2.5772,0,2.5617,2.5614,2.5631,2.5648,2.5662,2.5674,2.5685,2.5696,2.5687,2.5702,2.5724,2.5736,2.576,2.578,2.5796,2.5799,2.5785,2.5782,2.579,2.5794,2.5797,2.5796,2.5691,2.578,2.5779,2.5778,2.5778,2.5778,2.5673,2.5693,2.5701,2.5721,2.5729,2.574,2.5758,2.5759,2.5777,2.5796,2.5789,2.5814,2.5823,2.5843,2.5849,2.5869,2.5856,2.5867,2.587,2.5873,2.5877,2.5794,2.5872,2.5872,2.5872,2.5871,2.5871,0,2.5748,2.5753,2.5772,2.5788,2.5805,2.5791,2.5803,2.5817,2.584,2.585,2.5865,2.5891,2.5911,2.5913,2.5932,2.5948,2.5942,2.5953,2.5952,2.5953,2.5888,2.5879,2.5958,2.5958,2.5958,2.5958,2.5958,2.5958,2.5789,2.5822,2.582,2.5857,2.5862,2.5887,2.5896,2.5906,2.5914,2.5944,2.5961,2.5963,2.597,2.5989,2.6008,2.6008,2.6016,2.603,2.6027,2.5966,2.5957,2.5949,2.5941,2.6031,2.6032,2.6091,2.6091,2.6092]},{"header":{"parameterUnit":"m.s-1","parameterCategory":1,"la1":30.2991,"la2":30.254,"lo1":-89.0895,"lo2":-89.0444,"dy":0.0017,"dx":0.0017,"nx":28,"ny":28,"refTime":"2023-10-15T09:00:00:Z","depth":0,"parameterNumber":3,"parameterNumberName":"V-component_of_WINDS"},"data":[0,0,0,0,0,0,0,0,0,0,0,0,0,0,0,0,0,0,0,0,0,0,0,0,0,0,0,0,0,0,0,0,0,0,0,0,0,0,0,0,0,0,0,0,0,0,0,0,0,0,0,0,0,0,0,0,0,0,-6.8481,-6.8483,0,-6.8619,-6.8621,-6.8622,-6.8559,-6.8556,-6.8552,-6.8549,-6.8685,-6.8691,-6.8698,0,0,0,0,0,0,0,0,0,0,0,0,0,-6.816,-6.8166,-6.8481,-6.8483,-6.8485,-6.8619,-6.8621,-6.8623,-6.856,-6.8555,-6.8551,-6.8547,-6.8683,-6.8691,-6.8699,0,0,0,0,0,0,0,0,0,0,0,0,0,-6.8298,-6.8168,-6.8481,-6.847,-6.847,-6.8619,-6.8621,-6.8623,-6.856,-6.8555,-6.855,-6.8545,-6.868,-6.869,-6.87,-6.8866,0,0,-6.8731,-6.8736,0,0,0,0,0,0,0,0,-6.8291,-6.831,-6.847,-6.8471,-6.8471,-6.8567,-6.8557,-6.8705,-6.8562,-6.8526,-6.8549,-6.8543,-6.8649,-6.8662,-6.8699,-6.8873,-6.8879,-6.8732,-6.8738,-6.8743,-6.8746,0,0,0,0,0,0,0,-6.8281,-6.8304,-6.8536,-6.8472,-6.8473,-6.8456,-6.847,-6.8585,-6.8615,-6.8529,-6.8524,-6.8542,-6.8649,-6.8689,-6.8702,-6.8881,-6.8732,-6.8741,-6.8747,-6.8751,-6.9199,-6.9205,0,0,0,0,0,0,-6.8272,-6.8296,-6.8531,-6.854,-6.8367,-6.8466,-6.8482,-6.8541,-6.8613,-6.8619,-6.8546,-6.8538,-6.8674,-6.869,-6.8706,-6.8907,-6.8743,-6.8752,-6.8758,-6.9194,-6.9201,-6.9207,0,0,0,0,0,0,-6.8266,-6.8294,-6.8526,-6.8417,-6.8445,-6.8477,-6.8544,-6.8547,-6.8587,-6.8627,-6.8631,-6.8582,-6.8671,-6.8692,-6.8828,-6.8911,-6.8757,-6.8766,-6.9187,-6.9196,-6.9204,-6.9309,0,0,0,0,0,0,-6.8257,-6.8292,-6.8356,-6.8419,-6.8452,-6.8647,-6.8549,-6.8553,-6.8605,-6.8597,-6.8662,-6.8667,-6.8668,-6.8813,-6.8838,-6.8922,-6.8774,-6.9179,-6.9191,-6.9201,-6.9298,-6.932,-6.9339,0,0,0,0,0,-6.8245,-6.8379,-6.836,-6.8389,-6.8533,-6.8652,-6.867,-6.867,-6.8612,-6.8677,-6.8703,-6.8665,-6.8898,-6.8827,-6.8855,-6.8943,-6.9174,-6.9188,-6.92,-6.9289,-6.9316,-6.9338,0,0,0,0,0,0,-6.8323,-6.8387,-6.8366,-6.8524,-6.8583,-6.8641,-6.8722,-6.8698,-6.8773,-6.8761,-6.8756,-6.8771,-6.8913,-6.8941,-6.8862,-6.9109,-6.9027,-6.9046,-6.9085,-6.9111,-6.9131,-6.9121,-6.8783,0,0,0,0,0,-6.8358,-6.8451,-6.8501,-6.8636,-6.8667,-6.869,-6.8741,-6.8736,-6.8796,-6.882,-6.8856,-6.8914,-6.9,-6.9057,-6.9138,-6.9302,-6.9315,-6.9376,-6.9397,-6.9413,-6.943,-6.952,-6.9548,-6.9249,-6.9249,-6.9249,0,0,-6.8432,-6.8479,-6.8537,-6.8653,-6.8698,-6.8793,-6.8711,-6.8814,-6.8884,-6.8835,-6.8967,-6.8995,-6.906,-6.9211,-6.9279,-6.9239,-6.9515,-6.943,-6.9443,-6.945,-6.9536,-6.9564,-6.9589,-6.9258,-6.9257,-6.9255,0,0,-6.8616,-6.8661,-6.8779,-6.8826,-6.8896,-6.8911,-6.8939,-6.9001,-6.9019,-6.9151,-6.9117,-6.9199,-6.9348,-6.9396,-6.944,-6.9644,-6.9613,-6.9671,-6.9777,-6.9864,-6.9888,-6.9909,-6.9982,-7.0009,-6.9687,-6.9687,-6.9687,0,-6.8699,-6.8842,-6.8842,-6.8949,-6.9001,-6.8963,-6.9082,-6.9128,-6.922,-6.9256,-6.9211,-6.9398,-6.9438,-6.9601,-6.9651,-6.9688,-6.9719,-6.9663,-6.9885,-6.9906,-6.9925,-6.9995,-7.0023,-6.9694,-6.9693,-6.9692,-6.9692,0,-6.8941,-6.9041,-6.9127,-6.9221,-6.9282,-6.9394,-6.941,-6.9472,-6.9463,-6.9482,-6.9617,-6.9665,-6.9757,-6.9795,-6.9785,-6.9956,-6.993,-6.9885,-6.9802,-6.996,-7.0026,-7.0053,-6.9703,-6.9701,-6.9699,-6.9697,0,0,-6.9176,-6.9269,-6.9301,-6.9344,-6.9419,-6.9496,-6.9606,-6.9698,-6.9752,-6.9817,-6.9909,-7.0037,-6.9997,-7.0047,-7.0042,-7.0119,-7.0279,-7.0065,-7.0066,-7.0103,-7.0472,-7.0506,-7.0537,-7.0259,-7.0264,-7.0268,-7.0467,0,-6.9366,-6.9562,-6.9566,-6.9746,-6.9838,-6.9805,-6.9901,-6.9958,-6.9979,-7.006,-7.0082,-7.0173,-7.0113,-7.0143,-7.0218,-7.0244,-7.0353,-7.023,-7.0344,-7.0349,-7.033,-7.0571,-7.0607,-7.0792,-7.0492,-7.0497,-7.05,0,-6.9613,-6.969,-6.988,-6.9944,-6.9982,-7.007,-7.0154,-7.0232,-7.0295,-7.0305,-7.0363,-7.0347,-7.0459,-7.0374,-7.0529,-7.0445,-7.0492,-7.0512,-7.0519,-7.053,-7.0434,-7.0589,-7.0851,-7.0879,-7.054,-7.0537,-7.0534,0,-6.9767,-6.9917,-7.005,-7.0087,-7.0165,-7.0227,-7.0262,-7.032,-7.0376,-7.0449,-7.0485,-7.057,-7.0617,-7.0682,-7.069,-7.0627,-7.0846,-7.0761,-7.0857,-7.0857,-7.0904,-7.0901,-7.1178,-7.0934,-7.0934,-7.0933,-7.0933,0,-6.9979,-7.0096,-7.0121,-7.0203,-7.0333,-7.0336,-7.0465,-7.0494,-7.0547,-7.0634,-7.0609,-7.069,-7.0695,-7.0779,-7.0785,-7.0913,-7.0933,-7.0944,-7.0945,-7.0947,-7.0946,-7.0978,-7.0965,-7.0941,-7.0939,-7.0938,-7.0936,0,-7.0172,-7.0193,-7.0337,-7.0399,-7.0418,-7.0512,-7.0565,-7.0643,-7.0662,-7.0772,-7.0798,-7.0828,-7.0926,-7.094,-7.1053,-7.1057,-7.1211,-7.1197,-7.119,-7.1188,-7.1284,-7.1275,-7.1591,-7.1633,-7.1362,-7.1364,-7.1367,0,-7.0306,-7.0396,-7.047,-7.0527,-7.0566,-7.0658,-7.0716,-7.0722,-7.0782,-7.0862,-7.0931,-7.1026,-7.1102,-7.1259,-7.129,-7.1376,-7.1365,-7.147,-7.1378,-7.1378,-7.1367,-7.1362,-7.1372,-7.1488,-7.1491,-7.1493,-7.1495,0,-7.0542,-7.0549,-7.0633,-7.0722,-7.0792,-7.0861,-7.0927,-7.0974,-7.0989,-7.1058,-7.1158,-7.1218,-7.1335,-7.143,-7.1516,-7.155,-7.1526,-7.1524,-7.1551,-7.1554,-7.1547,-7.1553,-7.1239,-7.1517,-7.1514,-7.1513,-7.1512,-7.1511,-7.071,-7.0789,-7.0854,-7.0949,-7.1,-7.1063,-7.114,-7.117,-7.1255,-7.1352,-7.135,-7.1461,-7.1522,-7.1636,-7.1676,-7.1762,-7.1728,-7.1766,-7.1776,-7.1786,-7.1796,-7.1534,-7.1777,-7.1777,-7.1776,-7.1776,-7.1775,0,-7.0945,-7.0986,-7.1074,-7.1168,-7.1243,-7.1215,-7.1287,-7.1351,-7.1449,-7.151,-7.1587,-7.1703,-7.1795,-7.1834,-7.1925,-7.1986,-7.1977,-7.2009,-7.2005,-7.2013,-7.1821,-7.1789,-7.2015,-7.2015,-7.2015,-7.2015,-7.2015,-7.2015,-7.1077,-7.121,-7.1224,-7.1382,-7.1421,-7.1531,-7.1575,-7.1632,-7.1681,-7.1812,-7.189,-7.1916,-7.1968,-7.2063,-7.2146,-7.2155,-7.2189,-7.2227,-7.2232,-7.2051,-7.2027,-7.2004,-7.1974,-7.2235,-7.2235,-7.2417,-7.2418,-7.242]}]]